EW4338 Weather Reports


time (UTC)temp
F
wind
direction
speed
knots
gust
knots
rain 1hr
in
rain 24hr
in
rain mn
in
humidity
%
barometer
mb
20260504211057 53 344 11.3 22.6 0.00 0.00 0.00 44 1010.6
20260504210557 53 26 12.2 17.4 0.00 0.00 0.00 44 1010.6
20260504210057 54 31 10.4 21.7 0.00 0.00 0.00 42 1010.5
20260504205556 55 37 9.6 21.7 0.00 0.00 0.00 38 1010.5
20260504205054 56 5 9.6 19.1 0.00 0.00 0.00 37 1010.5
20260504204559 59 29 7.0 17.4 0.00 0.00 0.00 33 1010.4
20260504204053 61 17 6.1 17.4 0.00 0.00 0.00 31 1010.6
20260504203554 61 173 4.3 14.8 0.00 0.00 0.00 32 1010.6
20260504203153 61 240 7.0 14.8 0.00 0.00 0.00 32 1010.6
20260504202553 61 245 7.8 16.5 0.00 0.00 0.00 33 1010.5
20260504202053 61 230 10.4 17.4 0.00 0.00 0.00 32 1010.5
20260504201553 60 194 8.7 20.0 0.00 0.00 0.00 33 1010.5
20260504201052 59 202 11.3 20.9 0.00 0.00 0.00 33 1010.5
20260504200552 58 167 13.9 22.6 0.00 0.00 0.00 34 1010.7
20260504200053 58 215 13.9 22.6 0.00 0.00 0.00 36 1010.7
20260504195552 58 200 15.6 28.7 0.00 0.00 0.00 36 1010.6
20260504195053 58 202 22.6 28.7 0.00 0.00 0.00 36 1010.6
20260504194556 58 179 19.1 29.5 0.00 0.00 0.00 36 1010.6
20260504194051 58 189 21.7 29.5 0.00 0.00 0.00 36 1010.6
20260504193553 60 184 13.9 23.5 0.00 0.00 0.00 31 1010.7
20260504193050 60 225 13.0 22.6 0.00 0.00 0.00 28 1010.6
20260504192549 60 244 14.8 22.6 0.00 0.00 0.00 27 1010.5
20260504192050 60 230 14.8 20.9 0.00 0.00 0.00 29 1010.5
20260504191549 60 189 12.2 20.9 0.00 0.00 0.00 29 1010.6
20260504191049 60 235 14.8 20.9 0.00 0.00 0.00 27 1010.6
20260504190549 61 230 10.4 15.6 0.00 0.00 0.00 28 1010.7
20260504190048 61 254 3.5 9.6 0.00 0.00 0.00 29 1010.8
20260504185547 61 322 2.6 12.2 0.00 0.00 0.00 29 1010.9
20260504185046 61 240 8.7 13.0 0.00 0.00 0.00 29 1010.9
20260504184546 62 294 7.8 17.4 0.00 0.00 0.00 27 1011.0
20260504184046 63 290 7.0 17.4 0.00 0.00 0.00 27 1011.0
20260504183545 63 280 7.8 12.2 0.00 0.00 0.00 26 1011.1
20260504183045 63 297 6.1 13.9 0.00 0.00 0.00 28 1011.1
20260504182542 63 322 6.1 13.9 0.00 0.00 0.00 28 1011.2
20260504182042 61 300 5.2 13.9 0.00 0.00 0.00 30 1011.3
20260504181540 61 325 8.7 13.9 0.00 0.00 0.00 30 1011.5
20260504181039 60 270 7.0 13.9 0.00 0.00 0.00 32 1011.7
20260504180537 60 302 8.7 13.9 0.00 0.00 0.00 32 1011.8
20260504180045 60 226 6.1 13.9 0.00 0.00 0.00 32 1011.9
20260504175535 60 264 7.8 14.8 0.00 0.00 0.00 32 1012.0
20260504175035 59 269 8.7 15.6 0.00 0.00 0.00 33 1012.1
20260504174532 58 273 9.6 16.5 0.00 0.00 0.00 34 1012.3
20260504174032 58 287 10.4 14.8 0.00 0.00 0.00 34 1012.3
20260504173531 57 278 9.6 14.8 0.00 0.00 0.00 35 1012.3
20260504173032 57 283 8.7 13.9 0.00 0.00 0.00 35 1012.4
20260504172526 56 271 5.2 12.2 0.00 0.00 0.00 36 1012.5
20260504172025 56 323 7.0 13.9 0.00 0.00 0.00 36 1012.6
20260504171530 56 304 8.7 12.2 0.00 0.00 0.00 36 1012.7
20260504171022 55 275 7.8 14.8 0.00 0.00 0.00 36 1012.7
20260504170520 55 235 6.1 19.1 0.00 0.00 0.00 37 1012.7
20260504151000 54 240 7.8 14.8 0.00 0.00 0.00 34 1012.5
20260504150501 54 230 8.7 14.8 0.00 0.00 0.00 35 1012.5
20260504150111 54 175 7.0 13.9 0.00 0.00 0.00 34 1012.7
20260504141051 53 240 14.8 19.1 0.00 0.00 0.00 33 1012.5
20260504140550 53 247 13.9 18.2 0.00 0.00 0.00 32 1012.6
20260504130543 52 257 3.5 7.0 0.00 0.00 0.00 28 1012.8
20260504110527 53 246 11.3 14.8 0.00 0.00 0.00 26 1012.1
20260504100522 50 211 7.0 10.4 0.00 0.00 0.00 28 1012.4
20260504082005 50 235 2.6 4.3 0.00 0.00 0.00 29 1013.2
20260504081505 51 291 1.7 4.3 0.00 0.00 0.00 28 1013.2
20260504081008 51 291 0.0 8.7 0.00 0.00 0.00 28 1013.3
20260504080505 51 284 4.3 8.7 0.00 0.00 0.00 27 1013.3
20260504050543 50 192 3.5 7.8 0.00 0.00 0.00 35 1014.2
20260504045542 50 186 3.5 7.8 0.00 0.00 0.00 36 1014.2
20260504045043 50 208 3.5 7.8 0.00 0.00 0.00 36 1014.2
20260504044542 50 208 3.5 7.0 0.00 0.00 0.00 36 1014.3
20260504044041 51 205 2.6 7.0 0.00 0.00 0.00 35 1014.3
20260504043541 52 267 3.5 7.0 0.00 0.00 0.00 34 1014.3
20260504043041 51 259 3.5 7.0 0.00 0.00 0.00 34 1014.3
20260504042541 51 190 2.6 4.3 0.00 0.00 0.00 36 1014.3
20260504042040 51 235 2.6 5.2 0.00 0.00 0.00 35 1014.3
20260504041540 52 207 2.6 7.0 0.00 0.00 0.00 35 1014.3
20260504041039 52 215 1.7 8.7 0.00 0.00 0.00 34 1014.4
20260504040541 53 200 4.3 8.7 0.00 0.00 0.00 34 1014.4
20260504040100 54 206 4.3 8.7 0.00 0.00 0.00 33 1014.4
20260504035539 54 235 6.1 11.3 0.00 0.00 0.00 32 1014.3
20260504035039 54 235 7.0 12.2 0.00 0.00 0.00 32 1014.4
20260504034540 54 235 8.7 12.2 0.00 0.00 0.00 33 1014.4
20260504034038 54 210 4.3 12.2 0.00 0.00 0.00 33 1014.5
20260504033537 54 240 8.7 12.2 0.00 0.00 0.00 33 1014.5
20260504033037 54 244 7.8 11.3 0.00 0.00 0.00 34 1014.5
20260504032538 54 230 7.0 9.6 0.00 0.00 0.00 34 1014.5
20260504032037 54 191 6.1 10.4 0.00 0.00 0.00 34 1014.5
20260504031538 54 196 7.8 10.4 0.00 0.00 0.00 33 1014.5
20260504031037 54 202 7.8 10.4 0.00 0.00 0.00 33 1014.4
20260504030536 54 230 7.0 10.4 0.00 0.00 0.00 33 1014.5
20260504030036 54 208 4.3 10.4 0.00 0.00 0.00 33 1014.4
20260504025536 54 203 5.2 10.4 0.00 0.00 0.00 33 1014.4
20260504025038 55 221 6.1 13.0 0.00 0.00 0.00 33 1014.4
20260504024534 55 235 9.6 13.0 0.00 0.00 0.00 32 1014.4
20260504024034 55 225 7.8 13.0 0.00 0.00 0.00 32 1014.3
20260504023535 55 250 7.8 12.2 0.00 0.00 0.00 32 1014.3
20260504023034 55 240 8.7 12.2 0.00 0.00 0.00 31 1014.3
20260504022537 55 244 7.8 10.4 0.00 0.00 0.00 31 1014.4
20260504022034 56 235 5.2 9.6 0.00 0.00 0.00 31 1014.4
20260504021534 56 240 6.1 9.6 0.00 0.00 0.00 30 1014.3
20260504021033 56 201 3.5 11.3 0.00 0.00 0.00 30 1014.2
20260504020534 56 197 7.8 13.0 0.00 0.00 0.00 30 1014.2
20260504020035 57 209 9.6 14.8 0.00 0.00 0.00 29 1014.1
20260504015533 57 187 12.2 14.8 0.00 0.00 0.00 29 1014.1
20260504015032 57 200 9.6 12.2 0.00 0.00 0.00 29 1014.1
20260504014532 57 202 8.7 11.3 0.00 0.00 0.00 29 1014.1
20260504014032 58 200 6.1 11.3 0.00 0.00 0.00 28 1014.1
20260504013532 58 200 6.1 12.2 0.00 0.00 0.00 26 1014.0
20260504013033 59 235 9.6 14.8 0.00 0.00 0.00 25 1014.0
20260504012536 59 251 8.7 18.2 0.00 0.00 0.00 25 1013.9
20260504012032 59 263 12.2 18.2 0.00 0.00 0.00 25 1013.9
20260504011532 59 230 9.6 17.4 0.00 0.00 0.00 25 1013.9
20260504011032 59 268 9.6 17.4 0.00 0.00 0.00 25 1013.9
20260504010531 59 240 8.7 19.1 0.00 0.00 0.00 26 1014.0
20260504010031 59 244 12.2 19.1 0.00 0.00 0.00 26 1013.8
20260504005530 58 240 9.6 15.6 0.00 0.00 0.00 27 1014.0
20260504005031 59 271 9.6 18.2 0.00 0.00 0.00 28 1014.0
20260504004540 59 281 7.0 22.6 0.00 0.00 0.00 28 1014.3
20260504004029 59 212 14.8 26.1 0.00 0.00 0.00 28 1014.2
20260504003532 60 235 16.5 26.1 0.00 0.00 0.00 28 1014.3
20260504003030 60 281 16.5 26.1 0.00 0.00 0.00 28 1014.3
20260504002528 59 244 19.1 26.1 0.00 0.00 0.00 28 1014.1
20260504002027 59 235 18.2 26.1 0.00 0.00 0.00 28 1014.2
20260504001527 60 267 13.0 21.7 0.00 0.00 0.00 27 1014.5
20260504001028 61 259 9.6 16.5 0.00 0.00 0.00 27 1014.4
20260504000526 61 235 12.2 19.1 0.00 0.00 0.00 27 1014.5
20260504000026 59 262 13.9 18.2 0.00 0.00 0.00 28 1014.3
20260503235525 58 205 9.6 24.3 0.00 0.00 0.00 30 1014.3
20260503235027 59 235 14.8 25.2 0.00 0.00 0.00 28 1014.6
20260503234527 59 240 18.2 25.2 0.00 0.00 0.00 27 1014.6
20260503234024 60 244 7.8 15.6 0.00 0.00 0.00 27 1014.9
20260503233524 60 269 4.3 11.3 0.00 0.00 0.00 28 1015.0
20260503233024 59 282 7.0 11.3 0.00 0.00 0.00 27 1015.0
20260503232526 59 317 4.3 12.2 0.00 0.00 0.00 27 1015.0
20260503232023 60 321 5.2 11.3 0.00 0.00 0.00 27 1014.9
20260503231523 60 290 4.3 13.0 0.00 0.00 0.00 27 1014.9
20260503231025 60 340 7.0 13.0 0.00 0.00 0.00 26 1014.7
20260503230524 61 312 5.2 10.4 0.00 0.00 0.00 26 1014.6
20260503230028 61 340 3.5 12.2 0.00 0.00 0.00 26 1014.6
20260503225525 62 336 5.2 12.2 0.00 0.00 0.00 25 1014.7
20260503225024 63 338 4.3 10.4 0.00 0.00 0.00 26 1014.6
20260503224524 62 284 1.7 13.0 0.00 0.00 0.00 27 1014.7
20260503224022 62 337 7.0 13.0 0.00 0.00 0.00 26 1014.6
20260503223622 61 315 5.2 13.9 0.00 0.00 0.00 27 1014.6
20260503223021 61 291 5.2 15.6 0.00 0.00 0.00 27 1014.5
20260503222521 61 311 9.6 15.6 0.00 0.00 0.00 26 1014.4
20260503222020 61 346 8.7 20.9 0.00 0.00 0.00 27 1014.6
20260503221520 60 306 12.2 20.9 0.00 0.00 0.00 28 1014.6
20260503221020 61 304 8.7 19.1 0.00 0.00 0.00 26 1014.7
20260503220523 63 336 12.2 18.2 0.00 0.00 0.00 24 1014.6
20260503220019 64 302 2.6 9.6 0.00 0.00 0.00 22 1014.8
20260503215517 64 323 2.6 10.4 0.00 0.00 0.00 22 1015.0
20260503215017 64 321 4.3 10.4 0.00 0.00 0.00 21 1015.0
20260503214516 64 310 6.1 11.3 0.00 0.00 0.00 22 1015.1
20260503214017 63 283 7.0 20.0 0.00 0.00 0.00 22 1015.4
20260503213514 61 293 5.2 20.0 0.00 0.00 0.00 24 1015.5
20260503213018 61 263 12.2 20.9 0.00 0.00 0.00 24 1015.7
20260503212516 61 186 14.8 21.7 0.00 0.00 0.00 23 1015.8
20260503212014 62 273 16.5 23.5 0.00 0.00 0.00 22 1015.6
20260503211513 62 292 14.8 23.5 0.00 0.00 0.00 21 1015.7